Total_Precipitation_Accumulation
0.09 0.08 0.09 0.12 0.11 0.06 0.02 0.00 0.00 0.00 0.00 0.00 0.00 0.00 0.00 0.00 0.00 0.01 0.02 0.02 0.03 0.06 0.10 0.20 0.26 0.30 0.34 0.36 0.37 0.37 0.38 0.40 0.44 0.47 0.51 0.56 0.57 0.58 0.62 0.66 0.66 0.67 0.73 0.77 0.79 0.76 0.74 0.73 0.67
0.08 0.11 0.14 0.16 0.10 0.03 0.01 0.00 0.00 0.00 0.00 0.00 0.00 0.00 0.00 0.00 0.00 0.01 0.02 0.02 0.02 0.03 0.08 0.15 0.26 0.30 0.35 0.37 0.37 0.38 0.38 0.40 0.43 0.48 0.52 0.56 0.57 0.59 0.63 0.65 0.67 0.68 0.70 0.78 0.79 0.76 0.75 0.73 0.72
0.13 0.17 0.18 0.15 0.08 0.02 0.00 0.00 0.00 0.00 0.00 0.00 0.00 0.00 0.00 0.00 0.00 0.01 0.02 0.02 0.02 0.03 0.06 0.14 0.27 0.32 0.37 0.39 0.41 0.41 0.43 0.45 0.47 0.49 0.54 0.59 0.62 0.64 0.64 0.63 0.62 0.61 0.60 0.64 0.66 0.72 0.77 0.76 0.74
0.20 0.27 0.23 0.15 0.04 0.01 0.00 0.00 0.00 0.00 0.00 0.00 0.00 0.00 0.00 0.00 0.01 0.02 0.02 0.02 0.03 0.04 0.08 0.16 0.27 0.35 0.40 0.44 0.43 0.44 0.47 0.49 0.52 0.56 0.59 0.65 0.72 0.73 0.69 0.65 0.66 0.60 0.57 0.58 0.61 0.66 0.76 0.76 0.70
0.27 0.31 0.25 0.13 0.03 0.00 0.00 0.00 0.00 0.00 0.00 0.00 0.00 0.00 0.00 0.00 0.01 0.02 0.02 0.04 0.05 0.07 0.10 0.16 0.27 0.38 0.43 0.47 0.49 0.49 0.53 0.55 0.58 0.59 0.64 0.69 0.75 0.76 0.72 0.70 0.66 0.64 0.62 0.60 0.60 0.64 0.73 0.72 0.67
0.33 0.33 0.22 0.09 0.02 0.00 0.00 0.00 0.00 0.00 0.00 0.00 0.00 0.00 0.00 0.01 0.01 0.01 0.02 0.03 0.03 0.05 0.09 0.15 0.30 0.39 0.44 0.50 0.54 0.57 0.61 0.64 0.65 0.66 0.71 0.74 0.76 0.78 0.78 0.73 0.66 0.65 0.63 0.61 0.61 0.65 0.68 0.65 0.61
0.33 0.29 0.15 0.06 0.02 0.01 0.00 0.00 0.00 0.00 0.00 0.00 0.00 0.00 0.01 0.02 0.02 0.02 0.03 0.04 0.05 0.08 0.13 0.20 0.32 0.41 0.49 0.57 0.62 0.65 0.70 0.72 0.72 0.74 0.77 0.80 0.81 0.82 0.81 0.75 0.65 0.65 0.63 0.63 0.63 0.62 0.59 0.56 0.54
0.32 0.35 0.17 0.06 0.04 0.02 0.01 0.00 0.01 0.01 0.01 0.00 0.01 0.01 0.01 0.02 0.02 0.03 0.05 0.08 0.11 0.15 0.19 0.25 0.34 0.41 0.50 0.61 0.68 0.73 0.76 0.80 0.86 0.88 0.81 0.81 0.88 0.93 0.90 0.79 0.72 0.68 0.65 0.63 0.62 0.60 0.52 0.49 0.48
0.39 0.45 0.22 0.06 0.03 0.02 0.02 0.02 0.02 0.01 0.01 0.01 0.01 0.01 0.02 0.02 0.04 0.06 0.10 0.15 0.19 0.22 0.26 0.32 0.41 0.48 0.53 0.60 0.66 0.81 0.92 0.96 1.01 1.04 0.94 0.93 0.94 0.91 0.87 0.78 0.75 0.70 0.69 0.64 0.62 0.61 0.59 0.55 0.49
0.46 0.35 0.14 0.04 0.02 0.04 0.05 0.05 0.04 0.05 0.04 0.02 0.02 0.02 0.03 0.04 0.06 0.09 0.12 0.16 0.19 0.22 0.27 0.35 0.45 0.53 0.62 0.68 0.76 0.87 0.96 1.02 1.01 0.90 0.93 0.97 0.91 0.87 0.82 0.81 0.82 0.76 0.74 0.73 0.70 0.64 0.63 0.60 0.49
0.35 0.22 0.08 0.05 0.04 0.07 0.09 0.09 0.07 0.09 0.07 0.04 0.04 0.04 0.06 0.07 0.09 0.11 0.13 0.17 0.20 0.22 0.28 0.38 0.51 0.62 0.70 0.73 0.78 0.83 0.90 0.96 0.98 0.87 0.81 0.85 0.89 0.88 0.90 0.84 0.85 0.83 0.81 0.82 0.79 0.76 0.64 0.56 0.52
0.27 0.15 0.10 0.08 0.08 0.11 0.12 0.12 0.10 0.09 0.07 0.06 0.07 0.06 0.08 0.10 0.11 0.13 0.16 0.19 0.22 0.27 0.33 0.41 0.53 0.63 0.73 0.79 0.82 0.81 0.85 0.87 0.88 0.87 0.86 0.85 0.84 0.77 0.75 0.76 0.72 0.72 0.70 0.70 0.72 0.69 0.64 0.55 0.52
0.24 0.14 0.11 0.11 0.13 0.14 0.15 0.15 0.13 0.08 0.06 0.08 0.10 0.09 0.09 0.11 0.13 0.17 0.21 0.23 0.25 0.31 0.37 0.46 0.57 0.66 0.76 0.87 0.91 0.89 0.86 0.80 0.81 0.87 0.94 0.88 0.79 0.73 0.72 0.70 0.69 0.69 0.67 0.64 0.61 0.57 0.55 0.51 0.48
0.22 0.18 0.14 0.12 0.14 0.17 0.22 0.19 0.16 0.09 0.07 0.11 0.13 0.14 0.11 0.12 0.15 0.20 0.26 0.27 0.27 0.33 0.41 0.52 0.62 0.72 0.82 0.87 0.89 0.89 0.88 0.86 0.88 0.88 0.87 0.91 0.88 0.76 0.74 0.76 0.70 0.67 0.66 0.65 0.62 0.56 0.53 0.50 0.47
0.28 0.30 0.23 0.15 0.14 0.15 0.27 0.31 0.18 0.09 0.10 0.13 0.15 0.16 0.15 0.14 0.16 0.19 0.26 0.31 0.29 0.34 0.45 0.56 0.63 0.77 0.88 0.87 0.93 0.94 0.92 0.93 0.95 0.92 0.90 0.94 0.94 0.92 0.83 0.78 0.74 0.69 0.69 0.70 0.69 0.65 0.56 0.53 0.48
0.46 0.55 0.42 0.20 0.15 0.17 0.33 0.33 0.13 0.09 0.13 0.15 0.17 0.17 0.17 0.15 0.15 0.19 0.26 0.33 0.36 0.39 0.46 0.57 0.67 0.75 0.86 0.90 0.93 0.98 0.99 0.97 0.99 1.03 1.03 1.00 1.01 1.01 1.00 0.90 0.79 0.72 0.74 0.76 0.78 0.75 0.68 0.58 0.53
0.70 0.64 0.42 0.25 0.20 0.23 0.33 0.28 0.12 0.12 0.17 0.17 0.19 0.18 0.19 0.18 0.16 0.17 0.24 0.31 0.38 0.41 0.48 0.58 0.69 0.73 0.82 0.96 0.96 0.98 1.03 1.06 1.07 1.12 1.17 1.10 1.06 1.06 1.08 1.08 0.99 0.86 0.83 0.79 0.77 0.74 0.71 0.66 0.60
0.62 0.46 0.34 0.28 0.25 0.27 0.29 0.23 0.14 0.14 0.18 0.18 0.19 0.18 0.18 0.18 0.15 0.16 0.23 0.30 0.39 0.45 0.50 0.59 0.69 0.80 0.87 1.04 1.14 1.09 1.10 1.13 1.15 1.15 1.13 1.15 1.17 1.08 1.02 1.08 1.12 1.04 0.94 0.88 0.81 0.75 0.68 0.63 0.61
0.38 0.43 0.36 0.24 0.23 0.29 0.28 0.21 0.14 0.13 0.15 0.16 0.16 0.17 0.16 0.16 0.15 0.17 0.23 0.28 0.37 0.48 0.52 0.60 0.68 0.81 0.96 1.06 1.20 1.15 1.09 1.12 1.14 1.10 1.09 1.08 1.15 1.17 1.06 0.99 1.02 1.04 0.98 0.89 0.84 0.81 0.79 0.74 0.68
0.46 0.51 0.39 0.27 0.22 0.34 0.32 0.23 0.15 0.14 0.14 0.15 0.13 0.15 0.17 0.15 0.13 0.16 0.23 0.29 0.36 0.48 0.53 0.60 0.70 0.80 0.89 0.98 1.07 1.15 1.12 1.13 1.20 1.16 1.13 1.10 1.09 1.13 1.15 1.05 0.97 0.93 0.93 0.92 0.86 0.84 0.83 0.83 0.77
0.56 0.47 0.35 0.32 0.28 0.37 0.42 0.36 0.19 0.16 0.13 0.14 0.13 0.12 0.18 0.19 0.16 0.17 0.25 0.32 0.37 0.48 0.54 0.59 0.70 0.81 0.88 1.04 1.14 1.24 1.37 1.35 1.35 1.35 1.24 1.14 1.10 1.08 1.08 1.09 1.03 0.96 0.89 0.89 0.86 0.81 0.79 0.80 0.76
0.62 0.31 0.30 0.35 0.52 0.59 0.50 0.58 0.25 0.19 0.16 0.15 0.13 0.12 0.15 0.18 0.17 0.18 0.22 0.32 0.37 0.44 0.56 0.63 0.74 0.83 0.87 1.07 1.22 1.18 1.27 1.28 1.19 1.13 1.19 1.16 1.11 1.08 1.04 1.03 1.01 1.02 0.95 0.84 0.81 0.81 0.81 0.83 0.83
0.47 0.27 0.35 0.46 0.61 0.70 0.50 0.57 0.30 0.17 0.17 0.14 0.11 0.10 0.12 0.15 0.15 0.15 0.16 0.22 0.31 0.38 0.52 0.64 0.77 0.87 0.91 0.99 1.19 1.22 1.16 1.14 1.14 1.16 1.15 1.19 1.19 1.13 1.05 1.01 0.98 0.96 0.94 0.85 0.79 0.80 0.82 0.84 0.84
0.45 0.54 0.63 0.72 1.03 1.22 0.45 0.44 0.35 0.29 0.30 0.19 0.12 0.10 0.12 0.13 0.15 0.14 0.12 0.15 0.28 0.38 0.49 0.60 0.73 0.85 0.92 0.94 1.06 1.22 1.17 1.12 1.11 1.16 1.19 1.19 1.23 1.20 1.10 1.00 0.95 0.89 0.85 0.83 0.76 0.71 0.73 0.76 0.76
0.79 1.18 1.70 1.77 1.76 1.02 0.21 0.32 0.39 0.29 0.25 0.24 0.18 0.13 0.12 0.12 0.15 0.16 0.14 0.14 0.23 0.33 0.44 0.55 0.67 0.77 0.83 0.88 0.96 1.04 1.15 1.11 1.03 0.99 1.05 1.14 1.21 1.18 1.11 1.03 0.93 0.86 0.81 0.79 0.78 0.74 0.68 0.68 0.72
0.85 1.05 1.35 1.29 0.86 0.33 0.16 0.30 0.32 0.22 0.16 0.15 0.12 0.11 0.11 0.11 0.11 0.12 0.15 0.17 0.21 0.25 0.31 0.45 0.56 0.71 0.84 0.89 0.90 0.95 1.04 1.14 1.05 0.97 0.96 1.02 1.08 1.04 0.99 1.00 0.94 0.84 0.79 0.80 0.81 0.81 0.74 0.70 0.71
0.76 0.81 0.67 0.85 0.62 0.41 0.30 0.26 0.20 0.09 0.08 0.10 0.09 0.09 0.11 0.11 0.11 0.11 0.14 0.17 0.19 0.25 0.27 0.37 0.46 0.61 0.81 0.95 0.94 0.94 0.98 1.06 1.07 0.98 0.94 0.96 0.98 0.99 0.99 1.01 1.00 0.91 0.88 0.87 0.87 0.87 0.80 0.76 0.74
0.62 0.73 0.89 1.23 1.03 0.56 0.32 0.27 0.28 0.16 0.13 0.11 0.11 0.11 0.10 0.12 0.13 0.13 0.14 0.17 0.19 0.23 0.27 0.32 0.41 0.49 0.63 0.84 0.99 0.98 0.95 0.95 1.02 1.04 1.00 0.96 0.95 0.97 0.99 1.04 1.07 1.01 0.94 0.95 0.97 0.92 0.86 0.85 0.81
0.71 0.95 1.17 1.20 0.88 0.65 0.42 0.37 0.34 0.25 0.20 0.17 0.14 0.13 0.12 0.12 0.13 0.13 0.14 0.17 0.21 0.23 0.29 0.35 0.40 0.47 0.54 0.65 0.83 0.95 0.96 0.99 1.03 1.06 1.02 1.01 0.99 0.97 0.94 0.96 1.04 1.08 1.02 0.93 0.99 0.99 0.95 0.93 0.86
0.61 0.82 1.02 1.23 0.88 0.50 0.44 0.38 0.27 0.20 0.18 0.17 0.15 0.12 0.10 0.10 0.11 0.11 0.12 0.18 0.22 0.27 0.31 0.37 0.44 0.46 0.50 0.58 0.70 0.82 0.93 0.98 1.03 1.01 1.04 1.09 1.08 1.01 0.93 0.89 0.97 1.06 1.05 0.96 0.94 0.95 0.94 0.96 0.92